Content
SEND FEEDBACK

Daily
Averages
Monthly
Summary
Mexico

SAN MARTINIANO, QUINTANA ROO


Home > North America > Mexico > Quintana Roo
Elevation: 49 feet     Latitude: 20 47N     Longitude: 087 16W

WEATHER
 
SELECT A DAY
Number of Records: 196,490;   Date Range: 2/21/06 - 7/29/14
 
SHARE

PRINT THIS DATA

[ ← Previous Day ]
WEATHER ALMANAC - APRIL 25, 2014
[ Next Day → ]
[ °C ]   °F
Weather ElementAverageHighLow
Temperature75.3 °F87.8 °F (2:15 pm)64.4 °F (2:35 am)
Dewpoint38.3 °F68 °F (9:35 am) (7:00 pm)
Humidity54.3 %88 % (10:35 pm)31 % (4:15 pm)
Barometer30.01 in30.06 in (8:35 am)29.97 in (3:35 am)
Wind Speed3.9 mph13.8 mph (6:35 pm)
Wind Gust18.4 mph (4:35 pm)
Weather ElementAverage
Visibility7.7 mi
Wind DirectionSSE (165.4 °)

Weather ElementTotal
Precipitation---
Cooling Degree Days11.1 (Base 65)
Growing Degree Days26.1 (Base 50)
Averaged from 69 records on April 25, 2014
WEATHER CONDITIONS BREAKOUT
WIND DIRECTION BREAKOUT
WEATHER BY HOUR - APRIL 25, 2014
[ °C ]   °F
Local TimeTemperatureDewpointHumidityBarometerVisibilityWind DirectionWind SpeedGust SpeedPrecipitationEventsConditions
12:35 AM66.2 °F0.0 °F30.00 in7.0 miCalmClear
1:15 AM66.2 °F0.0 °F30.00 in5.0 miCalmHaze
1:35 AM66.2 °F0.0 °F29.99 in4.0 miCalmHaze
1:55 AM66.2 °F0.0 °F29.98 in3.0 miCalmClear
2:15 AM66.2 °F0.0 °F29.98 in5.0 miCalmHaze
2:35 AM64.4 °F0.0 °F29.98 in7.0 miCalmClear
2:55 AM64.4 °F0.0 °F29.98 in7.0 miCalmClear
3:15 AM64.4 °F0.0 °F29.98 in5.0 miCalmHaze
3:35 AM64.4 °F0.0 °F29.97 in7.0 miCalmClear
3:55 AM66.2 °F0.0 °F29.97 in7.0 miCalmClear
4:15 AM64.4 °F0.0 °F29.97 in4.0 miCalmHaze
4:35 AM66.2 °F0.0 °F29.98 in5.0 miCalmHaze
4:55 AM64.4 °F0.0 °F29.98 in4.0 miSouth (170°)3.5 mphHaze
5:15 AM64.4 °F0.0 °F29.99 in4.0 miSSW (200°)3.5 mphHaze
5:35 AM64.4 °F0.0 °F30.00 in3.0 miCalmClear
5:55 AM64.4 °F0.0 °F30.01 in3.0 miCalmClear
6:15 AM64.4 °F0.0 °F30.01 in2.5 miCalmClear
6:35 AM64.4 °F0.0 °F30.02 in2.5 miCalmClear
6:55 AM64.4 °F0.0 °F30.02 in0.2 miCalmFogFog
7:15 AM64.4 °F0.0 °F30.04 in2.0 miCalmOvercast
7:35 AM66.2 °F0.0 °F30.04 in3.0 miCalmOvercast
7:55 AM68.0 °F0.0 °F30.05 in3.0 miCalmOvercast
8:15 AM68.0 °F0.0 °F30.05 in3.0 miSW (220°)3.5 mphOvercast
8:35 AM69.8 °F0.0 °F30.06 in4.0 miCalmHaze
8:55 AM71.6 °F0.0 °F30.06 in4.0 miWSW (250°)3.5 mphHaze
9:15 AM73.4 °F0.0 °F30.06 in5.0 miWSW (250°)3.5 mphHaze
9:35 AM75.2 °F68.0 °F78 %30.06 in7.0 miCalmClear
9:55 AM77.0 °F68.0 °F74 %30.06 in7.0 miCalmClear
10:15 AM77.0 °F66.2 °F69 %30.06 in10.0 miCalmClear
10:35 AM78.8 °F64.4 °F61 %30.06 in10.0 miCalmScattered Clouds
10:55 AM80.6 °F64.4 °F58 %30.06 in10.0 miNNW (330°)3.5 mphScattered Clouds
11:15 AM80.6 °F62.6 °F54 %30.05 in10.0 miNNW (340°)4.6 mphScattered Clouds
11:35 AM80.6 °F64.4 °F58 %30.05 in10.0 miCalmClear
11:55 AM82.4 °F62.6 °F51 %30.04 in10.0 miCalmScattered Clouds
12:15 PM82.4 °F60.8 °F48 %30.03 in10.0 miSW (220°)4.6 mphScattered Clouds
12:35 PM84.2 °F60.8 °F45 %30.02 in10.0 miNW (310°)5.8 mphClear
12:55 PM84.2 °F60.8 °F45 %30.02 in10.0 miNW (320°)6.9 mphClear
1:15 PM84.2 °F59.0 °F42 %30.02 in10.0 miWest (280°)3.5 mphClear
1:35 PM86.0 °F57.2 °F37 %30.01 in10.0 miWest (270°)4.6 mphClear
1:55 PM86.0 °F57.2 °F37 %30.01 in10.0 miWNW (300°)9.2 mphClear
2:15 PM87.8 °F59.0 °F38 %30.00 in10.0 miWNW (300°)10.4 mphScattered Clouds
2:35 PM86.0 °F59.0 °F40 %30.00 in10.0 miNW (310°)9.2 mphScattered Clouds
2:55 PM86.0 °F57.2 °F37 %29.99 in10.0 miWest (280°)12.7 mph16.1 mphScattered Clouds
3:15 PM86.0 °F55.4 °F35 %29.99 in10.0 miNNW (330°)9.2 mphScattered Clouds
3:35 PM87.8 °F55.4 °F33 %29.99 in10.0 miNNW (330°)5.8 mphScattered Clouds
3:55 PM87.8 °F55.4 °F33 %29.98 in10.0 miWNW (300°)11.5 mphScattered Clouds
4:15 PM87.8 °F53.6 °F31 %29.98 in10.0 miNNW (340°)9.2 mph17.3 mphClear
4:35 PM86.0 °F53.6 °F33 %29.98 in10.0 miWNW (300°)12.7 mph18.4 mphClear
4:55 PM86.0 °F55.4 °F35 %29.98 in10.0 miWNW (300°)11.5 mphClear
5:15 PM86.0 °F57.2 °F37 %29.98 in10.0 miWNW (300°)8.1 mphClear
5:35 PM86.0 °F55.4 °F35 %29.98 in10.0 miNW (320°)10.4 mphClear
5:55 PM84.2 °F53.6 °F35 %29.98 in10.0 miNW (310°)9.2 mph16.1 mphClear
6:15 PM84.2 °F55.4 °F37 %29.99 in10.0 miWNW (300°)10.4 mphClear
6:35 PM82.4 °F59.0 °F45 %29.99 in10.0 miNW (310°)13.8 mphClear
6:55 PM82.4 °F60.8 °F48 %29.99 in10.0 miNW (320°)10.4 mphClear
7:15 PM80.6 °F60.8 °F51 %29.99 in10.0 miWNW (300°)6.9 mphClear
7:35 PM80.6 °F62.6 °F54 %29.99 in10.0 miNW (320°)6.9 mphClear
7:55 PM78.8 °F64.4 °F61 %29.99 in10.0 miNW (320°)9.2 mphClear
8:15 PM77.0 °F64.4 °F65 %30.00 in10.0 miNW (310°)6.9 mphClear
8:35 PM77.0 °F64.4 °F65 %30.01 in10.0 miWNW (300°)4.6 mphClear
8:55 PM75.2 °F66.2 °F73 %30.01 in10.0 miWNW (290°)3.5 mphClear
9:15 PM75.2 °F66.2 °F73 %30.02 in10.0 miWNW (290°)3.5 mphClear
9:35 PM75.2 °F66.2 °F73 %30.02 in10.0 miWNW (290°)4.6 mphClear
9:55 PM73.4 °F66.2 °F78 %30.02 in10.0 miNW (310°)4.6 mphClear
10:15 PM73.4 °F68.0 °F83 %30.03 in10.0 miNW (310°)3.5 mphClear
10:35 PM71.6 °F68.0 °F88 %30.03 in10.0 miCalmClear
10:55 PM71.6 °F68.0 °F88 %30.03 in10.0 miCalmClear
11:15 PM71.6 °F68.0 °F88 %30.03 in10.0 miWest (260°)3.5 mphClear
11:35 PM71.6 °F68.0 °F88 %30.03 in10.0 miCalmClear
Hourly data recorded from KPCM, located miles away from San Martiniano, Quintana Roo







STORIES FROM OUR PARTNERS